Hourly Weather Bolshie Steblevichi

Today, 23 June, Wednesday

Time Temperature Precipitation Wind Pressure Humidity
00:00 +21°C° 0 mm 2 mps 749 mmHg 80%
01:00 +20°C° 0 mm 2 mps 749 mmHg 85%
02:00 +20°C° 0 mm 2 mps 749 mmHg 88%
03:00 +20°C° 0 mm 2 mps 749 mmHg 88%
04:00 +20°C° 0 mm 2 mps 749 mmHg 89%
05:00 +20°C° 0 mm 2 mps 749 mmHg 89%
06:00 +23°C° 0 mm 2 mps 750 mmHg 82%
07:00 +25°C° 0 mm 2 mps 750 mmHg 75%
08:00 +27°C° 0 mm 2 mps 750 mmHg 68%
09:00 +28°C° 0 mm 2 mps 751 mmHg 62%
10:00 +30°C° 0 mm 3 mps 751 mmHg 57%
11:00 +31°C° 0 mm 3 mps 751 mmHg 51%
12:00 +33°C° 0 mm 3 mps 751 mmHg 47%
13:00 +34°C° 0 mm 2 mps 751 mmHg 44%
14:00 +35°C° 0 mm 2 mps 751 mmHg 41%
15:00 +35°C° 0 mm 2 mps 751 mmHg 42%
16:00 +35°C° 0 mm 2 mps 751 mmHg 44%
17:00 +34°C° 0 mm 1 mps 751 mmHg 45%
18:00 +32°C° 0 mm 2 mps 751 mmHg 52%
19:00 +30°C° 0 mm 2 mps 751 mmHg 60%
20:00 +28°C° 0 mm 2 mps 751 mmHg 67%
21:00 +27°C° 0 mm 2 mps 751 mmHg 70%
22:00 +26°C° 0 mm 2 mps 751 mmHg 74%
23:00 +25°C° 0 mm 2 mps 751 mmHg 77%

Tomorrow, 24 June, Thursday

Time Temperature Precipitation Wind Pressure Humidity
00:00 +25°C° 0 mm 2 mps 751 mmHg 81%
01:00 +24°C° 0 mm 2 mps 751 mmHg 85%
02:00 +23°C° 0 mm 2 mps 751 mmHg 89%
03:00 +23°C° 0 mm 2 mps 751 mmHg 90%
04:00 +23°C° 0 mm 2 mps 751 mmHg 91%
05:00 +23°C° 0 mm 2 mps 751 mmHg 92%
06:00 +24°C° 0 mm 2 mps 751 mmHg 84%
07:00 +26°C° 0 mm 2 mps 751 mmHg 76%
08:00 +28°C° 0 mm 3 mps 751 mmHg 68%
09:00 +29°C° 0 mm 3 mps 751 mmHg 62%
10:00 +31°C° 0 mm 3 mps 751 mmHg 57%
11:00 +33°C° 0 mm 3 mps 751 mmHg 51%
12:00 +34°C° 0 mm 3 mps 751 mmHg 48%
13:00 +35°C° 0 mm 3 mps 750 mmHg 44%
14:00 +35°C° 0 mm 2 mps 750 mmHg 41%
15:00 +35°C° 0 mm 2 mps 750 mmHg 42%
16:00 +35°C° 0 mm 2 mps 750 mmHg 43%
17:00 +35°C° 0 mm 2 mps 749 mmHg 43%
18:00 +31°C° 0.8 mm 2 mps 749 mmHg 54%
19:00 +28°C° 0.8 mm 3 mps 749 mmHg 65%
20:00 +25°C° 0.8 mm 3 mps 749 mmHg 76%
21:00 +24°C° 0.9 mm 2 mps 749 mmHg 79%
22:00 +23°C° 0.9 mm 1 mps 749 mmHg 82%
23:00 +21°C° 0.9 mm 0 mps 749 mmHg 84%

Day after tomorrow, 25 June, Friday

Time Temperature Precipitation Wind Pressure Humidity
00:00 +23°C° 0.2 mm 1 mps 749 mmHg 86%
01:00 +23°C° 0.2 mm 1 mps 749 mmHg 88%
02:00 +23°C° 0.2 mm 2 mps 749 mmHg 89%
03:00 +23°C° 0 mm 2 mps 749 mmHg 90%
04:00 +23°C° 0 mm 2 mps 748 mmHg 91%
05:00 +23°C° 0 mm 2 mps 748 mmHg 92%
06:00 +25°C° 0.1 mm 2 mps 748 mmHg 88%
07:00 +26°C° 0.1 mm 2 mps 748 mmHg 83%
08:00 +28°C° 0.1 mm 2 mps 748 mmHg 78%
09:00 +29°C° 0 mm 3 mps 748 mmHg 71%
10:00 +31°C° 0 mm 3 mps 748 mmHg 64%
11:00 +33°C° 0 mm 4 mps 748 mmHg 57%
12:00 +34°C° 0.1 mm 4 mps 748 mmHg 52%
13:00 +35°C° 0.1 mm 4 mps 748 mmHg 47%
14:00 +36°C° 0.1 mm 3 mps 748 mmHg 41%
15:00 +34°C° 0.3 mm 3 mps 747 mmHg 47%
16:00 +33°C° 0.3 mm 3 mps 747 mmHg 53%
17:00 +30°C° 0.3 mm 3 mps 747 mmHg 59%
18:00 +27°C° 4.5 mm 4 mps 747 mmHg 71%
19:00 +23°C° 4.5 mm 4 mps 748 mmHg 83%
20:00 +19°C° 4.5 mm 5 mps 748 mmHg 95%
21:00 +19°C° 0.5 mm 4 mps 748 mmHg 94%
22:00 +19°C° 0.5 mm 3 mps 747 mmHg 94%
23:00 +19°C° 0.5 mm 3 mps 747 mmHg 94%

26 June, Saturday

Time Temperature Precipitation Wind Pressure Humidity
00:00 +19°C° 0 mm 3 mps 747 mmHg 94%
01:00 +18°C° 0 mm 2 mps 748 mmHg 94%
02:00 +18°C° 0 mm 2 mps 748 mmHg 95%
03:00 +18°C° 0.1 mm 2 mps 748 mmHg 95%
04:00 +18°C° 0.1 mm 2 mps 748 mmHg 95%
05:00 +19°C° 0.1 mm 1 mps 748 mmHg 96%
06:00 +19°C° 0 mm 2 mps 748 mmHg 93%
07:00 +20°C° 0 mm 2 mps 748 mmHg 91%
08:00 +23°C° 0 mm 2 mps 748 mmHg 89%
09:00 +24°C° 0 mm 2 mps 748 mmHg 83%
10:00 +25°C° 0 mm 3 mps 749 mmHg 77%
11:00 +26°C° 0 mm 3 mps 749 mmHg 70%
12:00 +26°C° 0 mm 3 mps 749 mmHg 67%
13:00 +27°C° 0 mm 4 mps 749 mmHg 63%
14:00 +27°C° 0 mm 4 mps 749 mmHg 59%
15:00 +27°C° 0 mm 4 mps 749 mmHg 61%
16:00 +26°C° 0 mm 4 mps 749 mmHg 64%
17:00 +25°C° 0 mm 4 mps 749 mmHg 67%
18:00 +23°C° 0 mm 4 mps 749 mmHg 71%
19:00 +21°C° 0 mm 3 mps 749 mmHg 75%
20:00 +20°C° 0 mm 3 mps 749 mmHg 79%
21:00 +19°C° 0 mm 3 mps 749 mmHg 84%
22:00 +18°C° 0 mm 2 mps 749 mmHg 89%
23:00 +17°C° 0 mm 2 mps 750 mmHg 94%

27 June, Sunday

Time Temperature Precipitation Wind Pressure Humidity
00:00 +17°C° 0 mm 2 mps 749 mmHg 95%
01:00 +17°C° 0 mm 2 mps 749 mmHg 95%
02:00 +16°C° 0 mm 2 mps 749 mmHg 96%
03:00 +16°C° 0 mm 2 mps 749 mmHg 96%
04:00 +16°C° 0 mm 2 mps 749 mmHg 96%
05:00 +16°C° 0 mm 2 mps 749 mmHg 96%
06:00 +18°C° 0 mm 2 mps 750 mmHg 89%
07:00 +20°C° 0 mm 3 mps 750 mmHg 83%
08:00 +21°C° 0 mm 3 mps 750 mmHg 77%
09:00 +22°C° 0.1 mm 3 mps 750 mmHg 71%
10:00 +24°C° 0.1 mm 3 mps 750 mmHg 66%
11:00 +25°C° 0.1 mm 3 mps 750 mmHg 61%
12:00 +25°C° 0.1 mm 3 mps 750 mmHg 62%
13:00 +25°C° 0.1 mm 3 mps 750 mmHg 63%
14:00 +23°C° 0.1 mm 4 mps 750 mmHg 64%
15:00 +25°C° 0 mm 3 mps 750 mmHg 63%
16:00 +25°C° 0 mm 3 mps 750 mmHg 62%
17:00 +25°C° 0 mm 3 mps 750 mmHg 60%
18:00 +24°C° 0 mm 3 mps 750 mmHg 67%
19:00 +21°C° 0 mm 2 mps 750 mmHg 74%
20:00 +20°C° 0 mm 2 mps 750 mmHg 80%
21:00 +19°C° 0 mm 2 mps 750 mmHg 84%
22:00 +18°C° 0 mm 2 mps 750 mmHg 87%
23:00 +17°C° 0 mm 2 mps 751 mmHg 91%

28 June, Monday

Time Temperature Precipitation Wind Pressure Humidity
00:00 +17°C° 0 mm 2 mps 751 mmHg 92%
01:00 +16°C° 0 mm 2 mps 751 mmHg 93%
02:00 +16°C° 0 mm 2 mps 751 mmHg 94%
03:00 +16°C° 0 mm 2 mps 751 mmHg 93%
04:00 +16°C° 0 mm 2 mps 751 mmHg 93%
05:00 +16°C° 0 mm 2 mps 751 mmHg 92%
06:00 +18°C° 0 mm 2 mps 751 mmHg 85%
07:00 +19°C° 0 mm 3 mps 751 mmHg 78%
08:00 +21°C° 0 mm 3 mps 751 mmHg 72%
09:00 +22°C° 0 mm 3 mps 751 mmHg 65%
10:00 +24°C° 0 mm 3 mps 751 mmHg 59%
11:00 +26°C° 0 mm 4 mps 751 mmHg 53%
12:00 +26°C° 0 mm 4 mps 751 mmHg 51%
13:00 +27°C° 0 mm 4 mps 750 mmHg 50%
14:00 +27°C° 0 mm 4 mps 750 mmHg 49%
15:00 +26°C° 0 mm 4 mps 750 mmHg 54%
16:00 +26°C° 0 mm 3 mps 750 mmHg 58%
17:00 +25°C° 0 mm 3 mps 750 mmHg 63%
18:00 +24°C° 0 mm 2 mps 750 mmHg 67%
19:00 +23°C° 0 mm 2 mps 750 mmHg 71%
20:00 +21°C° 0 mm 2 mps 750 mmHg 74%
21:00 +20°C° 0 mm 2 mps 750 mmHg 77%
22:00 +19°C° 0 mm 2 mps 750 mmHg 80%
23:00 +18°C° 0 mm 2 mps 750 mmHg 82%
Show more